Location: Unspecified
(0.0000°N, 0.0000°E)
Time: 15:06:15
(UTC+00:00)

N. Korean satellite - Visible Passes

Search period start: 09 August 2020 00:00
Search period end: 19 August 2020 00:00
Orbit: 453 x 506 km, 97.2° (Epoch: 09 August)

Date Brightness Start Highest point End Pass type
(mag) Time Alt. Az. Time Alt. Az. Time Alt. Az.
09 Aug 7.4 05:39:02 10° NNW 05:42:15 31° W 05:45:33 10° SW visible
10 Aug 6.6 05:12:49 10° NNE 05:16:26 88° ESE 05:20:07 10° S visible
11 Aug 8.5 04:47:24 10° NE 04:50:37 30° ESE 04:53:53 10° SSE visible
12 Aug 9.8 04:23:23 10° ENE 04:24:49 12° ESE 04:26:16 10° SE visible
13 Aug 6.9 05:28:33 10° N 05:32:03 47° W 05:35:37 10° SSW visible
14 Aug 7.3 05:02:38 10° NNE 05:06:13 57° E 05:09:52 10° S visible
15 Aug 9.2 04:37:35 10° NE 04:40:24 21° ESE 04:43:15 10° SSE visible
17 Aug 6.5 05:18:09 10° N 05:21:48 73° WNW 05:25:30 10° SSW visible
18 Aug 8.1 04:52:32 10° NNE 04:55:58 38° E 04:59:26 10° S visible
